| time (UTC) | temp F | wind direction | speed knots | gust knots | rain 1hr in | rain 24hr in | rain mn in | humidity % | barometer mb |
| 20260507211804 | 60 | 270 | 7.0 | 14.8 | 0.00 | 0.14 | 0.03 | 37 | 1003.8 |
| 20260507210903 | 60 | 288 | 3.5 | 10.4 | 0.00 | 0.15 | 0.03 | 39 | 1003.7 |
| 20260507210003 | 60 | 275 | 7.0 | 20.9 | 0.00 | 0.16 | 0.03 | 36 | 1003.7 |
| 20260507205403 | 60 | 265 | 7.8 | 20.9 | 0.00 | 0.17 | 0.03 | 37 | 1003.8 |
| 20260507204503 | 60 | 262 | 7.8 | 14.8 | 0.00 | 0.18 | 0.03 | 36 | 1003.7 |
| 20260507203709 | 60 | 263 | 7.0 | 14.8 | 0.00 | 0.19 | 0.03 | 35 | 1003.5 |
| 20260507202704 | 60 | 261 | 8.7 | 18.2 | 0.00 | 0.20 | 0.03 | 38 | 1003.6 |
| 20260507201808 | 61 | 259 | 7.8 | 14.8 | 0.00 | 0.22 | 0.03 | 35 | 1003.7 |
| 20260507201009 | 61 | 258 | 5.2 | 13.0 | 0.00 | 0.23 | 0.03 | 35 | 1003.7 |
| 20260507200003 | 61 | 274 | 5.2 | 13.0 | 0.00 | 0.24 | 0.03 | 34 | 1003.9 |
| 20260507195404 | 61 | 257 | 4.3 | 10.4 | 0.00 | 0.24 | 0.03 | 35 | 1003.9 |
| 20260507194504 | 61 | 241 | 6.1 | 12.2 | 0.00 | 0.25 | 0.03 | 35 | 1003.9 |
| 20260507193603 | 61 | 284 | 6.1 | 13.9 | 0.00 | 0.25 | 0.03 | 35 | 1004.0 |
| 20260507192703 | 61 | 274 | 6.1 | 13.0 | 0.00 | 0.26 | 0.03 | 36 | 1004.0 |
| 20260507191803 | 60 | 261 | 7.8 | 14.8 | 0.00 | 0.27 | 0.03 | 33 | 1004.2 |
| 20260507190904 | 60 | 258 | 7.8 | 16.5 | 0.00 | 0.27 | 0.03 | 35 | 1004.2 |
| 20260507190004 | 61 | 244 | 7.0 | 19.1 | 0.00 | 0.27 | 0.03 | 35 | 1004.1 |
| 20260507185403 | 61 | 255 | 7.0 | 14.8 | 0.00 | 0.27 | 0.03 | 36 | 1004.3 |
| 20260507184503 | 60 | 291 | 6.1 | 13.0 | 0.00 | 0.27 | 0.03 | 36 | 1004.3 |
| 20260507183604 | 61 | 279 | 6.1 | 18.2 | 0.00 | 0.27 | 0.03 | 38 | 1004.4 |
| 20260507182703 | 60 | 260 | 7.8 | 18.2 | 0.00 | 0.27 | 0.03 | 35 | 1004.4 |
| 20260507181803 | 60 | 247 | 7.8 | 14.8 | 0.00 | 0.27 | 0.03 | 35 | 1004.5 |
| 20260507180903 | 60 | 252 | 9.6 | 16.5 | 0.00 | 0.27 | 0.03 | 33 | 1004.7 |
| 20260507180003 | 60 | 272 | 7.8 | 15.6 | 0.00 | 0.27 | 0.03 | 36 | 1004.5 |
| 20260507175403 | 60 | 263 | 7.8 | 19.1 | 0.00 | 0.27 | 0.03 | 37 | 1004.6 |
| 20260507174503 | 60 | 254 | 8.7 | 20.9 | 0.00 | 0.27 | 0.03 | 37 | 1004.5 |
| 20260507173603 | 60 | 248 | 9.6 | 17.4 | 0.00 | 0.27 | 0.03 | 37 | 1004.4 |
| 20260507172809 | 60 | 246 | 8.7 | 15.6 | 0.00 | 0.27 | 0.03 | 39 | 1004.5 |
| 20260507171803 | 59 | 275 | 7.8 | 15.6 | 0.00 | 0.27 | 0.03 | 41 | 1004.7 |
| 20260507171010 | 59 | 274 | 7.8 | 15.6 | 0.00 | 0.27 | 0.03 | 43 | 1004.9 |
| 20260507170003 | 60 | 260 | 7.8 | 14.8 | 0.00 | 0.27 | 0.03 | 46 | 1004.9 |
| 20260507165510 | 59 | 266 | 8.7 | 14.8 | 0.00 | 0.27 | 0.03 | 45 | 1005.1 |
| 20260507164503 | 59 | 256 | 6.1 | 17.4 | 0.00 | 0.27 | 0.03 | 48 | 1005.0 |
| 20260507163603 | 59 | 265 | 8.7 | 16.5 | 0.00 | 0.27 | 0.03 | 48 | 1005.1 |
| 20260507162704 | 60 | 248 | 7.0 | 18.2 | 0.00 | 0.27 | 0.03 | 53 | 1005.3 |
| 20260507161803 | 59 | 248 | 6.1 | 13.0 | 0.00 | 0.27 | 0.03 | 57 | 1005.2 |
| 20260507161009 | 58 | 258 | 7.0 | 14.8 | 0.00 | 0.27 | 0.03 | 58 | 1005.3 |
| 20260507160004 | 57 | 280 | 4.3 | 10.4 | 0.00 | 0.27 | 0.03 | 61 | 1005.3 |
| 20260507155404 | 56 | 267 | 6.1 | 16.5 | 0.00 | 0.27 | 0.03 | 59 | 1005.4 |
| 20260507154609 | 57 | 255 | 5.2 | 11.3 | 0.00 | 0.27 | 0.03 | 58 | 1005.4 |
| 20260507153603 | 57 | 265 | 5.2 | 11.3 | 0.00 | 0.27 | 0.03 | 59 | 1005.5 |
| 20260507152703 | 57 | 259 | 7.0 | 12.2 | 0.00 | 0.27 | 0.03 | 61 | 1005.6 |
| 20260507151804 | 57 | 264 | 5.2 | 11.3 | 0.00 | 0.27 | 0.03 | 56 | 1005.7 |
| 20260507150903 | 58 | 258 | 3.5 | 7.8 | 0.00 | 0.27 | 0.03 | 55 | 1005.9 |
| 20260507150005 | 58 | 250 | 6.1 | 12.2 | 0.00 | 0.27 | 0.03 | 58 | 1006.0 |
| 20260507145403 | 57 | 258 | 6.1 | 12.2 | 0.00 | 0.27 | 0.03 | 56 | 1006.0 |
| 20260507144503 | 57 | 277 | 5.2 | 9.6 | 0.00 | 0.27 | 0.03 | 56 | 1006.0 |
| 20260507143603 | 57 | 266 | 3.5 | 10.4 | 0.00 | 0.27 | 0.03 | 55 | 1006.1 |
| 20260507142704 | 57 | 258 | 5.2 | 10.4 | 0.00 | 0.27 | 0.03 | 58 | 1006.0 |
| 20260507141803 | 56 | 270 | 4.3 | 12.2 | 0.00 | 0.27 | 0.03 | 56 | 1006.1 |
| 20260507140904 | 56 | 270 | 4.3 | 9.6 | 0.00 | 0.27 | 0.03 | 58 | 1006.0 |
| 20260507140003 | 56 | 284 | 3.5 | 8.7 | 0.00 | 0.27 | 0.03 | 60 | 1006.0 |
| 20260507135403 | 55 | 263 | 4.3 | 9.6 | 0.00 | 0.27 | 0.03 | 59 | 1005.9 |
| 20260507134503 | 55 | 271 | 4.3 | 8.7 | 0.00 | 0.27 | 0.03 | 61 | 1006.0 |
| 20260507133604 | 54 | 260 | 4.3 | 8.7 | 0.00 | 0.27 | 0.03 | 62 | 1006.0 |
| 20260507132810 | 54 | 286 | 2.6 | 8.7 | 0.00 | 0.27 | 0.03 | 63 | 1006.3 |
| 20260507131803 | 53 | 271 | 5.2 | 12.2 | 0.00 | 0.27 | 0.03 | 64 | 1006.4 |
| 20260507131009 | 53 | 271 | 5.2 | 12.2 | 0.00 | 0.27 | 0.03 | 65 | 1006.4 |
| 20260507130004 | 54 | 285 | 4.3 | 9.6 | 0.00 | 0.27 | 0.03 | 67 | 1006.5 |
| 20260507125404 | 53 | 290 | 3.5 | 9.6 | 0.00 | 0.27 | 0.03 | 67 | 1006.6 |
| 20260507124503 | 53 | 288 | 3.5 | 10.4 | 0.00 | 0.27 | 0.03 | 68 | 1006.5 |
| 20260507123603 | 52 | 283 | 4.3 | 8.7 | 0.00 | 0.27 | 0.03 | 70 | 1006.5 |
| 20260507122705 | 51 | 276 | 3.5 | 8.7 | 0.00 | 0.27 | 0.03 | 71 | 1006.5 |
| 20260507121909 | 51 | 282 | 2.6 | 7.8 | 0.00 | 0.27 | 0.03 | 75 | 1006.6 |
| 20260507120904 | 50 | 283 | 4.3 | 8.7 | 0.00 | 0.27 | 0.03 | 74 | 1006.7 |
| 20260507120005 | 50 | 275 | 3.5 | 8.7 | 0.00 | 0.27 | 0.03 | 74 | 1006.7 |
| 20260507115404 | 50 | 271 | 1.7 | 6.1 | 0.00 | 0.27 | 0.03 | 77 | 1006.6 |
| 20260507114610 | 49 | 298 | 1.7 | 3.5 | 0.00 | 0.27 | 0.03 | 76 | 1006.5 |
| 20260507113603 | 49 | 303 | 2.6 | 7.0 | 0.00 | 0.27 | 0.03 | 77 | 1006.5 |
| 20260507112809 | 49 | 305 | 1.7 | 6.1 | 0.00 | 0.27 | 0.03 | 77 | 1006.4 |
| 20260507111909 | 48 | 302 | 1.7 | 5.2 | 0.00 | 0.27 | 0.03 | 78 | 1006.3 |
| 20260507110904 | 48 | 300 | 1.7 | 7.0 | 0.00 | 0.27 | 0.03 | 77 | 1006.3 |
| 20260507110003 | 48 | 291 | 2.6 | 7.0 | 0.00 | 0.27 | 0.03 | 77 | 1006.5 |
| 20260507105403 | 48 | 284 | 2.6 | 8.7 | 0.00 | 0.27 | 0.03 | 78 | 1006.3 |
| 20260507104505 | 48 | 299 | 3.5 | 8.7 | 0.00 | 0.27 | 0.03 | 79 | 1005.9 |
| 20260507103604 | 48 | 291 | 3.5 | 8.7 | 0.00 | 0.27 | 0.03 | 81 | 1005.8 |
| 20260507102703 | 48 | 297 | 4.3 | 9.6 | 0.00 | 0.27 | 0.03 | 82 | 1005.7 |
| 20260507101804 | 48 | 295 | 3.5 | 8.7 | 0.00 | 0.27 | 0.03 | 84 | 1005.9 |
| 20260507101010 | 48 | 290 | 4.3 | 11.3 | 0.00 | 0.27 | 0.03 | 85 | 1005.7 |
| 20260507100003 | 48 | 283 | 2.6 | 8.7 | 0.00 | 0.27 | 0.03 | 86 | 1005.5 |
| 20260507095403 | 48 | 264 | 4.3 | 9.6 | 0.00 | 0.27 | 0.03 | 86 | 1005.8 |
| 20260507094610 | 48 | 262 | 3.5 | 9.6 | 0.00 | 0.27 | 0.03 | 86 | 1005.9 |
| 20260507093709 | 48 | 255 | 5.2 | 10.4 | 0.00 | 0.27 | 0.03 | 86 | 1005.7 |
| 20260507092704 | 48 | 260 | 2.6 | 7.0 | 0.00 | 0.27 | 0.03 | 85 | 1005.7 |
| 20260507091909 | 48 | 257 | 4.3 | 8.7 | 0.00 | 0.27 | 0.03 | 83 | 1005.9 |
| 20260507090903 | 48 | 267 | 5.2 | 13.9 | 0.00 | 0.27 | 0.03 | 82 | 1006.1 |
| 20260507090110 | 48 | 267 | 5.2 | 13.9 | 0.00 | 0.27 | 0.03 | 81 | 1005.9 |
| 20260507085403 | 48 | 269 | 6.1 | 13.9 | 0.01 | 0.27 | 0.03 | 81 | 1005.6 |
| 20260507084504 | 48 | 273 | 5.2 | 11.3 | 0.01 | 0.27 | 0.03 | 80 | 1005.4 |
| 20260507083604 | 48 | 276 | 6.1 | 12.2 | 0.01 | 0.27 | 0.03 | 80 | 1005.6 |
| 20260507082809 | 49 | 287 | 6.1 | 12.2 | 0.01 | 0.27 | 0.03 | 81 | 1005.1 |
| 20260507081804 | 49 | 279 | 5.2 | 13.0 | 0.01 | 0.27 | 0.03 | 84 | 1005.4 |
| 20260507080903 | 49 | 273 | 5.2 | 9.6 | 0.01 | 0.27 | 0.03 | 85 | 1005.4 |
| 20260507080003 | 50 | 276 | 5.2 | 11.3 | 0.01 | 0.27 | 0.03 | 85 | 1005.7 |
| 20260507075404 | 50 | 282 | 4.3 | 9.6 | 0.00 | 0.26 | 0.02 | 85 | 1005.5 |
| 20260507074504 | 50 | 278 | 4.3 | 15.6 | 0.00 | 0.26 | 0.02 | 84 | 1005.8 |
| 20260507073604 | 50 | 279 | 3.5 | 9.6 | 0.00 | 0.26 | 0.02 | 85 | 1005.4 |
| 20260507072704 | 50 | 271 | 4.3 | 8.7 | 0.00 | 0.26 | 0.02 | 85 | 1005.2 |
| 20260507071910 | 50 | 270 | 5.2 | 10.4 | 0.00 | 0.26 | 0.02 | 85 | 1005.1 |
| 20260507071010 | 50 | 270 | 5.2 | 10.4 | 0.00 | 0.26 | 0.02 | 85 | 1005.2 |
| 20260507070008 | 50 | 265 | 5.2 | 10.4 | 0.00 | 0.26 | 0.02 | 85 | 1004.9 |
| 20260507065404 | 50 | 263 | 5.2 | 10.4 | 0.00 | 0.26 | 0.02 | 85 | 1004.8 |
| 20260507064503 | 50 | 265 | 3.5 | 7.8 | 0.00 | 0.26 | 0.02 | 84 | 1004.9 |
| 20260507063709 | 50 | 273 | 4.3 | 8.7 | 0.00 | 0.26 | 0.02 | 83 | 1004.9 |
| 20260507062704 | 50 | 268 | 4.3 | 8.7 | 0.00 | 0.26 | 0.02 | 82 | 1004.6 |
| 20260507061909 | 51 | 271 | 5.2 | 9.6 | 0.00 | 0.26 | 0.02 | 82 | 1004.6 |
| 20260507060903 | 51 | 274 | 6.1 | 15.6 | 0.00 | 0.26 | 0.02 | 82 | 1004.7 |
| 20260507060110 | 51 | 273 | 7.0 | 15.6 | 0.00 | 0.26 | 0.02 | 83 | 1004.8 |
| 20260507055404 | 51 | 268 | 7.8 | 14.8 | 0.00 | 0.26 | 0.02 | 83 | 1005.0 |
| 20260507054610 | 51 | 266 | 7.8 | 15.6 | 0.00 | 0.26 | 0.02 | 85 | 1005.2 |
| 20260507053709 | 52 | 270 | 6.1 | 13.0 | 0.00 | 0.26 | 0.02 | 86 | 1004.9 |
| 20260507052704 | 52 | 273 | 7.0 | 13.0 | 0.00 | 0.26 | 0.02 | 86 | 1004.9 |
| 20260507051803 | 52 | 261 | 6.1 | 11.3 | 0.00 | 0.26 | 0.02 | 89 | 1005.3 |
| 20260507050903 | 53 | 276 | 5.2 | 10.4 | 0.01 | 0.26 | 0.02 | 90 | 1005.0 |
| 20260507050110 | 53 | 268 | 6.1 | 12.2 | 0.02 | 0.26 | 0.02 | 90 | 1005.2 |
| 20260507045403 | 53 | 273 | 5.2 | 11.3 | 0.02 | 0.26 | 0.02 | 90 | 1005.2 |
| 20260507044503 | 54 | 294 | 5.2 | 13.9 | 0.02 | 0.26 | 0.02 | 90 | 1005.0 |
| 20260507043603 | 55 | 284 | 4.3 | 12.2 | 0.02 | 0.26 | 0.02 | 91 | 1004.9 |
| 20260507042703 | 55 | 268 | 7.8 | 13.9 | 0.02 | 0.26 | 0.02 | 90 | 1004.8 |
| 20260507041803 | 56 | 261 | 7.0 | 12.2 | 0.02 | 0.26 | 0.02 | 90 | 1005.0 |
| 20260507040903 | 57 | 264 | 6.1 | 15.6 | 0.01 | 0.25 | 0.01 | 90 | 1005.0 |
| 20260507040004 | 57 | 255 | 3.5 | 8.7 | 0.00 | 0.24 | 0.00 | 92 | 1004.9 |
| 20260507035404 | 57 | 248 | 3.5 | 7.8 | 0.00 | 0.24 | 0.24 | 92 | 1004.6 |
| 20260507034504 | 57 | 245 | 4.3 | 8.7 | 0.00 | 0.24 | 0.24 | 92 | 1004.5 |
| 20260507033603 | 58 | 250 | 5.2 | 10.4 | 0.00 | 0.24 | 0.24 | 93 | 1004.5 |
| 20260507032703 | 58 | 253 | 4.3 | 10.4 | 0.00 | 0.24 | 0.24 | 94 | 1004.3 |
| 20260507031804 | 58 | 219 | 3.5 | 10.4 | 0.00 | 0.24 | 0.24 | 94 | 1004.0 |
| 20260507030903 | 58 | 203 | 4.3 | 9.6 | 0.00 | 0.24 | 0.24 | 93 | 1003.8 |
| 20260507030003 | 58 | 190 | 5.2 | 10.4 | 0.00 | 0.24 | 0.24 | 93 | 1003.7 |
| 20260507025404 | 58 | 192 | 4.3 | 15.6 | 0.00 | 0.24 | 0.24 | 93 | 1003.8 |
| 20260507024503 | 58 | 187 | 5.2 | 13.0 | 0.00 | 0.24 | 0.24 | 93 | 1003.8 |
| 20260507023604 | 58 | 185 | 5.2 | 16.5 | 0.00 | 0.24 | 0.24 | 93 | 1003.9 |
| 20260507022703 | 58 | 185 | 5.2 | 10.4 | 0.00 | 0.24 | 0.24 | 93 | 1003.8 |
| 20260507021803 | 58 | 182 | 6.1 | 11.3 | 0.00 | 0.24 | 0.24 | 93 | 1003.7 |
| 20260507020904 | 58 | 178 | 5.2 | 11.3 | 0.00 | 0.24 | 0.24 | 93 | 1003.6 |
| 20260507020003 | 58 | 179 | 5.2 | 14.8 | 0.00 | 0.24 | 0.24 | 93 | 1003.9 |
| 20260507015403 | 58 | 184 | 5.2 | 14.8 | 0.00 | 0.24 | 0.24 | 93 | 1003.9 |
| 20260507014503 | 58 | 183 | 5.2 | 10.4 | 0.00 | 0.24 | 0.24 | 93 | 1004.0 |
| 20260507013604 | 58 | 180 | 5.2 | 16.5 | 0.00 | 0.24 | 0.24 | 93 | 1003.9 |
| 20260507012703 | 58 | 182 | 5.2 | 13.9 | 0.00 | 0.24 | 0.24 | 93 | 1004.0 |
| 20260507011803 | 58 | 180 | 5.2 | 13.9 | 0.00 | 0.24 | 0.24 | 93 | 1004.0 |
| 20260507011009 | 58 | 183 | 5.2 | 13.9 | 0.00 | 0.24 | 0.24 | 93 | 1004.0 |
| 20260507010003 | 58 | 180 | 7.0 | 13.0 | 0.00 | 0.24 | 0.24 | 93 | 1004.2 |
| 20260507005509 | 58 | 174 | 6.1 | 16.5 | 0.00 | 0.24 | 0.24 | 93 | 1004.0 |
| 20260507004504 | 58 | 174 | 7.0 | 14.8 | 0.00 | 0.24 | 0.24 | 93 | 1004.1 |
| 20260507003604 | 58 | 175 | 7.0 | 14.8 | 0.00 | 0.24 | 0.24 | 93 | 1004.0 |
| 20260507002703 | 58 | 176 | 7.8 | 14.8 | 0.01 | 0.24 | 0.24 | 93 | 1004.0 |
| 20260507001909 | 58 | 175 | 7.0 | 14.8 | 0.03 | 0.24 | 0.24 | 94 | 1003.9 |
| 20260507000903 | 58 | 185 | 5.2 | 13.0 | 0.05 | 0.24 | 0.24 | 94 | 1003.8 |
| 20260507000003 | 58 | 168 | 5.2 | 12.2 | 0.06 | 0.24 | 0.24 | 94 | 1003.7 |
| 20260506235404 | 58 | 169 | 5.2 | 11.3 | 0.06 | 0.24 | 0.24 | 94 | 1003.8 |
| 20260506234503 | 58 | 172 | 5.2 | 11.3 | 0.07 | 0.24 | 0.24 | 93 | 1003.7 |
| 20260506233604 | 58 | 172 | 6.1 | 13.0 | 0.08 | 0.24 | 0.24 | 93 | 1003.7 |
| 20260506232703 | 58 | 171 | 6.1 | 13.9 | 0.08 | 0.23 | 0.23 | 93 | 1003.8 |
| 20260506231804 | 58 | 171 | 5.2 | 11.3 | 0.06 | 0.20 | 0.20 | 93 | 1003.8 |
| 20260506230903 | 59 | 170 | 5.2 | 14.8 | 0.05 | 0.19 | 0.19 | 93 | 1003.9 |
| 20260506230004 | 59 | 174 | 6.1 | 11.3 | 0.04 | 0.18 | 0.18 | 93 | 1004.2 |
| 20260506225408 | 59 | 172 | 6.1 | 12.2 | 0.04 | 0.18 | 0.18 | 92 | 1004.1 |
| 20260506224609 | 59 | 172 | 6.1 | 13.0 | 0.03 | 0.17 | 0.17 | 92 | 1004.1 |
| 20260506223603 | 59 | 170 | 5.2 | 13.0 | 0.02 | 0.16 | 0.16 | 92 | 1004.2 |
| 20260506222703 | 59 | 166 | 5.2 | 11.3 | 0.02 | 0.15 | 0.15 | 92 | 1004.2 |
| 20260506221804 | 59 | 172 | 5.2 | 14.8 | 0.01 | 0.14 | 0.14 | 92 | 1004.2 |
| 20260506221010 | 59 | 172 | 6.1 | 15.6 | 0.02 | 0.14 | 0.14 | 92 | 1004.3 |
| 20260506220003 | 59 | 164 | 5.2 | 12.2 | 0.03 | 0.14 | 0.14 | 92 | 1004.4 |
| 20260506215403 | 59 | 163 | 3.5 | 9.6 | 0.04 | 0.14 | 0.14 | 92 | 1004.4 |
| 20260506214503 | 59 | 159 | 4.3 | 12.2 | 0.05 | 0.14 | 0.14 | 92 | 1004.4 |
| 20260506213604 | 59 | 159 | 3.5 | 9.6 | 0.06 | 0.14 | 0.14 | 92 | 1004.6 |
| 20260506212809 | 59 | 166 | 3.5 | 9.6 | 0.06 | 0.13 | 0.13 | 92 | 1004.8 |